Location: Governador Valadares
(18.8500°S, 41.9330°W)
Time: 15:49:51
(UTC-03:00)

BlueWalker 3 - Visible Passes

Search period start: 23 June 2024 00:00
Search period end: 03 July 2024 00:00
Orbit: 480 x 493 km, 53.2° (Epoch: 23 June)

Date Brightness Start Highest point End Pass type
(mag) Time Alt. Az. Time Alt. Az. Time Alt. Az.
23 Jun 4.9 04:41:40 10° NNE 04:44:07 17° ENE 04:46:36 10° E visible
24 Jun 5.0 04:16:14 10° NNE 04:18:25 15° ENE 04:20:38 10° E visible
24 Jun 2.8 05:53:03 10° WNW 05:56:19 27° SW 05:59:38 10° S visible
25 Jun 5.0 03:53:01 13° ENE 03:53:01 13° ENE 03:54:37 10° E visible
25 Jun 2.7 05:27:35 12° WNW 05:30:35 30° SW 05:34:00 10° SSE visible
26 Jun 2.8 05:05:34 31° SSW 05:05:34 31° SSW 05:08:20 10° SSE visible
27 Jun 4.6 04:42:38 10° SSE 04:42:38 10° SSE 04:42:40 10° SSE visible
